Temp
18 18 18 18 18 18 18 18 18 18 18 18 19 19 20 21 21 20 19 19 19 19 19 19 19 19 19 18 18 17 18 18 18
18 17 17 17 18 18 17 18 18 18 18 18 19 19 20 21 21 21 20 18 18 18 18 18 18 18 19 18 18 18 18 17 18
17 16 17 17 17 18 17 17 18 17 18 18 18 19 20 21 20 20 19 18 18 18 19 19 18 18 18 18 18 18 17 17 17
17 17 16 17 17 17 17 17 17 17 17 18 18 19 20 21 20 21 19 19 18 18 18 18 18 18 18 18 18 18 17 17 17
16 16 16 16 17 17 17 17 17 16 17 17 18 19 20 20 20 19 19 18 18 18 18 18 18 18 18 18 18 17 17 17 17
16 15 16 16 16 17 17 16 16 15 17 17 18 19 20 20 19 18 18 17 18 18 18 18 18 18 17 17 17 17 17 17 16
17 15 16 16 16 16 16 16 16 16 16 16 17 18 19 19 18 17 17 17 17 17 17 17 17 17 17 16 16 16 16 16 16
16 17 17 16 16 15 15 16 16 17 16 16 17 17 18 18 17 17 17 17 17 17 17 17 17 16 16 15 16 16 16 17 17
17 17 17 16 16 15 15 16 16 15 14 14 16 16 16 17 16 16 17 17 17 17 17 17 16 16 16 16 16 16 16 17 17
16 17 17 17 16 15 15 15 14 15 14 15 14 14 16 15 15 16 16 17 16 17 17 16 16 16 15 16 16 16 16 16 16
15 15 16 16 16 16 14 15 14 15 15 14 14 14 14 14 15 14 15 16 16 16 16 16 16 16 15 16 16 16 16 16 15
14 14 15 15 16 15 15 14 15 14 14 13 13 13 13 13 13 14 14 14 15 16 15 16 16 15 15 15 15 15 15 15 15
14 14 14 15 15 14 15 14 14 12 12 12 12 12 12 13 13 13 13 13 13 14 15 16 16 15 15 15 14 15 15 14 14
13 14 14 13 14 13 14 14 14 13 11 11 11 11 11 12 13 13 14 14 13 13 14 15 15 15 15 15 14 14 14 14 14
13 13 13 13 13 13 13 14 13 13 11 10 11 11 11 12 12 12 12 13 13 13 14 14 14 14 14 15 14 14 14 13 14
12 13 13 12 13 12 13 13 13 12 10 9 10 11 11 11 11 11 11 11 12 13 13 14 14 14 14 14 14 13 14 13 13
11 12 12 12 12 13 12 12 11 10 10 11 12 13 11 11 11 11 11 11 11 11 12 12 13 13 13 14 13 14 13 12 12
10 11 11 12 12 12 11 11 10 9 10 11 13 12 12 15 10 10 11 11 10 10 10 11 12 12 13 13 13 13 13 12 12
9 10 10 10 11 11 12 11 11 10 10 10 12 11 11 13 13 11 10 10 9 9 9 9 10 11 12 12 12 12 12 12 12
9 8 9 9 10 10 11 11 10 10 10 10 11 11 11 11 11 13 10 9 9 9 9 9 9 10 12 12 12 12 12 12 11
Height
819 820 821 822 823 823 824 824 825 825 826 826 826 826 827 826 828 828 829 829 829 830 830 831 831 833 834 835 836 837 837 837 838
821 822 822 824 825 825 825 826 827 827 829 828 828 828 829 829 830 830 830 831 831 833 833 833 834 835 837 837 839 839 840 840 840
821 823 823 825 826 827 827 828 828 829 829 830 830 830 830 831 831 832 832 833 833 834 835 835 837 837 839 839 841 842 842 843 843
822 821 823 824 827 828 828 829 829 830 830 832 832 832 832 833 834 834 834 835 835 836 838 838 839 840 841 841 842 844 844 845 845
821 823 824 826 827 828 829 830 830 832 831 833 833 833 834 835 835 834 835 837 837 837 838 839 840 841 842 843 843 845 846 847 847
823 823 823 825 827 828 829 830 831 832 833 834 834 835 836 836 835 837 838 838 839 839 840 841 842 842 843 844 844 846 848 848 849
823 823 824 825 827 829 829 831 832 833 835 836 836 837 837 837 838 838 839 840 840 840 842 842 843 844 845 846 846 848 849 849 849
823 824 825 826 828 829 831 831 834 835 836 836 836 837 838 839 839 839 840 840 841 841 842 843 844 845 846 847 848 848 849 850 851
823 824 825 826 828 829 831 833 834 836 836 836 837 837 838 841 841 841 841 841 841 843 843 844 845 845 847 848 849 850 850 850 852
824 825 826 827 828 829 831 833 834 836 836 836 837 838 839 840 842 842 842 842 842 843 844 845 846 847 848 849 850 850 850 852 852
823 825 826 827 829 830 832 832 834 836 836 837 838 839 840 840 841 844 843 843 843 844 844 845 847 848 849 849 850 851 851 852 853
823 824 826 827 828 830 831 832 835 836 836 837 838 839 840 840 841 842 844 845 845 845 845 846 847 848 850 850 850 851 852 852 853
823 824 825 826 827 829 831 831 834 836 837 837 838 839 839 840 841 842 843 844 846 847 847 847 847 848 849 850 851 852 852 853 854
823 824 825 826 827 828 829 831 833 835 837 837 837 838 839 840 841 841 842 843 845 847 847 847 847 848 850 850 851 852 853 854 855
822 823 824 825 826 827 829 830 832 834 836 837 837 837 838 839 840 840 841 842 843 844 846 847 847 848 849 851 852 853 854 855 856
821 823 823 824 825 826 828 829 831 833 835 836 837 838 837 838 838 840 841 841 842 843 844 846 847 847 848 850 851 852 854 855 856
821 822 822 823 824 825 826 828 829 831 833 835 836 837 837 835 835 837 838 840 840 841 842 843 845 846 847 848 850 851 853 855 856
819 820 821 822 823 824 824 826 827 829 831 833 835 836 834 828 832 833 834 836 838 839 840 841 842 843 845 846 848 849 850 854 855
819 819 820 821 821 822 824 824 825 827 828 831 832 833 834 831 830 832 832 833 835 836 837 838 838 839 841 844 845 847 848 851 853
821 820 819 819 820 820 821 822 823 824 826 826 828 830 832 834 834 826 830 832 832 833 834 835 836 837 839 841 843 845 846 848 851
Wind_Speed
5 7 9 8 7 6 7 6 7 8 8 9 9 11 12 9 9 9 9 9 10 10 11 11 11 14 15 14 14 15 15 15 15
4 2 6 6 5 5 6 5 6 7 7 8 8 8 8 8 7 7 8 7 9 9 10 11 11 12 12 12 13 12 13 14 13
6 5 5 6 5 4 5 4 6 6 7 7 6 8 9 7 7 6 7 7 7 7 7 9 9 9 10 11 11 11 10 10 11
9 5 5 6 5 5 6 4 5 6 7 7 7 9 8 6 5 5 7 6 5 6 7 7 7 9 9 9 9 9 9 9 9
4 5 6 8 7 6 7 5 5 7 8 8 7 11 8 6 5 8 6 5 5 5 6 6 7 7 7 8 8 7 6 6 6
2 5 6 8 7 8 7 7 6 6 8 9 9 6 3 5 9 7 6 5 4 5 6 6 5 8 9 8 7 8 6 7 7
4 1 3 9 8 7 9 8 6 6 5 5 7 3 4 6 9 4 4 3 2 5 5 7 7 8 8 7 8 9 9 8 10
3 2 4 5 8 7 6 7 4 4 5 6 7 5 4 5 7 6 3 2 2 5 6 7 7 9 10 9 9 9 8 8 8
5 5 6 6 9 9 8 7 5 4 3 4 6 6 6 5 7 7 5 5 2 4 5 6 8 8 9 6 7 7 7 7 7
5 6 6 8 6 5 7 6 6 4 4 5 6 6 6 10 8 7 6 7 6 2 5 5 10 9 7 5 7 6 6 5 6
5 7 8 8 9 7 6 7 5 8 7 7 7 7 8 8 11 6 5 4 5 6 2 6 8 8 5 6 6 5 4 4 4
5 6 8 9 9 11 8 6 11 8 8 8 7 6 7 8 7 9 6 4 5 4 5 6 7 6 7 6 5 5 5 4 5
5 5 6 7 9 10 11 10 10 7 8 8 8 6 6 6 6 4 5 5 3 3 2 5 9 7 8 9 11 10 10 10 9
6 6 6 7 8 10 11 11 13 11 7 8 8 8 6 6 6 6 6 5 5 3 3 3 6 8 8 12 12 11 11 12 12
7 6 6 7 8 9 11 10 11 10 8 6 8 8 9 8 7 7 7 7 6 6 7 5 7 10 11 10 13 13 12 12 10
7 7 7 7 9 11 11 11 11 9 8 6 3 7 9 11 11 9 6 7 7 9 9 10 8 10 12 12 12 13 11 11 8
6 7 7 8 8 10 14 15 11 6 11 4 1 3 6 14 16 15 12 9 9 9 11 11 15 11 12 13 12 12 11 9 7
7 6 7 7 9 10 13 16 18 12 14 12 6 3 5 3 9 16 17 14 11 11 12 12 13 15 14 14 15 14 15 11 7
7 8 7 8 9 11 12 15 20 14 15 16 21 10 3 2 2 7 12 13 13 12 12 13 14 16 17 18 18 18 17 14 9
7 7 7 9 9 11 12 14 15 20 15 18 12 21 12 9 5 2 7 13 14 14 13 13 13 16 17 19 21 21 19 15 11
Wind_Direction
88 102 101 98 100 99 103 103 110 112 121 119 111 104 96 81 82 89 90 102 114 111 116 114 116 111 113 112 103 95 90 89 86
142 157 120 111 112 112 108 113 125 131 138 129 121 114 96 86 91 92 94 93 112 120 112 114 113 116 119 118 112 101 95 93 88
165 201 161 141 132 143 140 142 132 139 149 139 127 116 104 84 91 99 88 94 98 107 120 120 119 120 123 117 113 106 99 96 91
214 224 191 157 163 157 163 140 130 134 156 152 131 118 110 104 98 115 94 100 111 105 117 122 125 126 125 124 119 114 112 106 99
212 205 205 187 180 173 163 138 142 162 162 155 128 109 86 99 108 69 103 120 120 121 119 122 128 127 124 120 124 111 104 106 109
127 200 205 195 184 185 176 168 164 175 160 152 132 108 97 104 97 90 113 88 123 131 133 135 141 133 130 131 116 103 104 100 107
165 146 190 185 180 167 169 159 164 120 147 140 139 93 116 88 69 88 96 102 136 144 141 146 147 139 132 122 114 128 120 119 118
193 168 127 154 179 164 162 155 142 166 141 177 183 124 102 100 79 92 96 126 163 169 158 152 148 143 128 123 124 125 121 115 114
201 193 173 165 181 171 166 166 140 130 124 164 178 160 139 97 86 98 87 77 123 159 158 167 154 144 126 125 133 127 120 117 114
209 205 197 191 195 168 159 152 164 165 166 182 167 153 152 136 103 102 102 93 84 100 177 176 171 146 131 140 136 124 124 124 113
205 203 203 206 200 196 185 194 169 220 210 187 176 163 149 134 138 102 85 79 78 78 132 161 174 149 156 162 138 137 134 141 142
201 205 206 206 207 209 202 182 219 217 201 192 172 175 168 153 148 141 111 60 58 54 99 160 166 156 155 148 148 136 133 136 141
206 205 207 206 206 211 215 210 191 188 201 192 189 196 201 200 198 195 158 141 110 28 94 191 173 177 171 146 132 124 111 102 108
214 218 212 203 204 211 211 210 210 206 192 203 206 207 205 215 222 218 216 205 164 151 118 176 177 172 172 148 134 128 120 115 114
217 221 215 208 206 212 210 213 209 199 183 187 213 229 238 233 235 239 236 234 218 202 204 184 172 172 164 164 143 135 130 127 113
216 221 220 217 218 220 210 209 203 166 172 168 224 261 255 250 241 238 243 241 230 226 216 208 196 174 171 167 162 148 139 129 123
224 227 231 228 227 223 214 212 184 191 199 201 163 259 244 252 244 240 237 237 237 230 217 214 210 200 183 178 179 167 157 138 135
242 241 240 241 234 233 228 224 214 195 211 197 214 212 241 208 205 234 231 236 235 231 227 217 208 206 202 186 179 179 173 158 155
265 253 251 245 241 239 237 235 231 217 211 218 222 246 311 288 212 224 221 219 221 221 223 218 212 207 198 194 185 179 173 171 177
302 288 272 259 249 245 240 237 234 232 217 214 215 223 236 267 268 229 201 220 223 218 213 214 212 207 202 191 186 181 188 193 197